Date String (YYYY-MM-DD hh:mm:ss) UTC,Instrument flags,Ambient pressure (hPa),Sample flow (lpm),Bypass flow (lpm),Sample temperature (°C),Ambient temperature (°C),ASC tube jacket temperature (°C),LED temperature (°C),Box temperature (°C),Sample RH (%),Span deviation,Mass concentration (μg/m³),Mass concentration (μg/m³),Mass concentration (μg/m³)
DateTimeUTC,F1_M11,P_M11,Q1_M11,Q2_M11,T1_M11,T2_M11,T3_M11,T4_M11,T5_M11,U1_M11,ZSPAN_M11,X0_M11,X2_M11,X1_M11
2021-11-17 20:00:00,,0831.5,5.00,0.00,23.8,23.1,00.0,32.6,25.6,09.6,0000.0,0014.36,0003.91,0002.14
2021-11-17 20:01:00,,0831.2,5.00,0.00,23.8,23.1,00.0,32.7,25.6,09.6,0000.0,0014.62,0003.85,0002.15
2021-11-17 20:02:00,,0831.2,5.00,0.00,23.8,23.1,00.0,32.7,25.6,09.7,0000.0,0014.30,0003.88,0002.15
2021-11-17 20:03:00,,0831.2,5.00,0.00,23.8,23.2,00.0,32.7,25.6,09.6,0000.0,0014.05,0003.85,0002.14
2021-11-17 20:04:00,,0831.2,5.01,0.00,23.8,23.2,00.0,32.7,25.6,09.6,0000.0,0012.76,0003.87,0002.14
2021-11-17 20:05:00,,0831.2,4.99,0.00,23.9,23.2,00.0,32.7,25.7,09.7,0000.0,0012.54,0003.91,0002.15
2021-11-17 20:06:00,,0831.2,5.01,0.00,23.9,23.2,00.0,32.7,25.7,09.7,0000.0,0011.57,0003.85,0002.14
2021-11-17 20:07:00,,0831.2,4.99,0.00,23.9,23.2,00.0,32.7,25.7,09.6,0000.0,0011.16,0003.86,0002.13
2021-11-17 20:08:00,,0831.2,5.01,0.00,23.9,23.2,00.0,32.7,25.7,09.6,0000.0,0010.77,0003.90,0002.11
2021-11-17 20:09:00,,0831.2,4.98,0.00,23.9,23.2,00.0,32.8,25.7,09.5,0000.0,0010.58,0003.85,0002.11
2021-11-17 20:10:00,,0831.2,5.01,0.00,23.9,23.2,00.0,32.8,25.7,09.5,0000.0,0010.09,0003.78,0002.12
2021-11-17 20:11:00,,0831.3,4.99,0.00,23.9,23.3,00.0,32.8,25.8,09.4,0000.0,0009.94,0003.75,0002.11
2021-11-17 20:12:00,,0831.4,5.01,0.00,23.9,23.3,00.0,32.8,25.9,09.5,0000.0,0009.68,0003.76,0002.10
2021-11-17 20:13:00,,0831.4,5.01,0.00,24.0,23.3,00.0,32.8,25.9,09.5,0000.0,0009.35,0003.76,0002.10
2021-11-17 20:14:00,,0831.3,5.00,0.00,24.0,23.3,00.0,32.8,25.9,09.3,0000.0,0009.92,0003.77,0002.08
2021-11-17 20:15:00,,0831.4,4.99,0.00,24.0,23.3,00.0,32.9,25.9,09.2,0000.0,0010.61,0003.75,0002.08
2021-11-17 20:16:00,,0831.3,5.00,0.00,24.0,23.2,00.0,32.9,25.8,09.3,0000.0,0010.47,0003.68,0002.07
2021-11-17 20:17:00,,0831.3,5.00,0.00,23.9,23.2,00.0,32.9,25.7,09.3,0000.0,0010.43,0003.69,0002.04
2021-11-17 20:18:00,,0831.3,5.00,0.00,23.9,23.2,00.0,32.9,25.7,09.3,0000.0,0010.65,0003.68,0002.05
2021-11-17 20:19:00,,0831.3,5.01,0.00,23.9,23.2,00.0,32.9,25.7,09.3,0000.0,0011.01,0003.58,0002.04
2021-11-17 20:20:00,,0831.2,4.99,0.00,23.9,23.2,00.0,32.9,25.7,09.3,0000.0,0010.99,0003.58,0002.04
2021-11-17 20:21:00,,0831.3,5.00,0.00,23.9,23.2,00.0,32.9,25.7,09.3,0000.0,0011.15,0003.64,0002.03
2021-11-17 20:22:00,,0831.3,5.00,0.00,23.9,23.2,00.0,32.9,25.7,09.2,0000.0,0011.33,0003.68,0002.03
2021-11-17 20:23:00,,0831.3,5.01,0.00,23.9,23.2,00.0,32.9,25.7,09.1,0000.0,0011.79,0003.72,0002.03
2021-11-17 20:24:00,,0831.4,5.00,0.00,23.9,23.2,00.0,32.9,25.7,09.1,0000.0,0011.91,0003.73,0002.03
2021-11-17 20:25:00,,0831.3,4.99,0.00,23.9,23.2,00.0,32.9,25.6,09.1,0000.0,0011.82,0003.72,0002.03
2021-11-17 20:26:00,,0831.2,5.00,0.00,23.9,23.1,00.0,32.9,25.6,09.1,0000.0,0011.31,0003.76,0002.04
2021-11-17 20:27:00,,0831.2,5.01,0.00,23.9,23.1,00.0,32.9,25.6,09.1,0000.0,0011.30,0003.78,0002.05
2021-11-17 20:28:00,,0831.2,5.00,0.00,23.9,23.1,00.0,32.9,25.6,09.1,0000.0,0011.77,0003.76,0002.05
2021-11-17 20:29:00,,0831.2,4.99,0.00,23.9,23.1,00.0,32.9,25.7,09.0,0000.0,0012.32,0003.75,0002.05
2021-11-17 20:30:00,,0831.2,5.01,0.00,23.9,23.1,00.0,32.9,25.7,09.1,0000.0,0013.54,0003.77,0002.04
2021-11-17 20:31:00,,0831.2,4.99,0.00,23.8,23.1,00.0,32.9,25.6,09.0,0000.0,0013.58,0003.75,0002.03
2021-11-17 20:32:00,,0831.2,5.00,0.00,23.8,23.1,00.0,32.9,25.6,08.9,0000.0,0013.42,0003.73,0002.02
2021-11-17 20:33:00,,0831.2,4.99,0.00,23.8,23.1,00.0,32.9,25.5,08.9,0000.0,0013.25,0003.68,0002.01
2021-11-17 20:34:00,,0831.2,5.01,0.00,23.8,23.1,00.0,32.8,25.5,08.9,0000.0,0012.85,0003.62,0002.01
2021-11-17 20:35:00,,0831.2,5.01,0.00,23.8,23.0,00.0,32.8,25.5,08.9,0000.0,0012.84,0003.62,0002.00
2021-11-17 20:36:00,,0831.1,4.99,0.00,23.8,23.0,00.0,32.8,25.5,08.9,0000.0,0012.80,0003.68,0002.00
2021-11-17 20:37:00,,0831.2,5.00,0.00,23.8,23.0,00.0,32.8,25.5,08.9,0000.0,0013.27,0003.63,0001.98
2021-11-17 20:38:00,,0831.1,5.00,0.00,23.7,23.0,00.0,32.8,25.5,08.8,0000.0,0013.73,0003.66,0001.97
2021-11-17 20:39:00,,0831.2,5.00,0.00,23.7,23.0,00.0,32.8,25.5,08.9,0000.0,0014.52,0003.67,0001.96
2021-11-17 20:40:00,,0831.2,5.00,0.00,23.7,23.0,00.0,32.8,25.5,08.9,0000.0,0014.52,0003.69,0001.94
2021-11-17 20:41:00,,0831.2,5.01,0.00,23.7,23.0,00.0,32.8,25.5,09.0,0000.0,0013.03,0003.70,0001.94
2021-11-17 20:42:00,,0831.2,5.00,0.00,23.8,23.0,00.0,32.8,25.5,09.0,0000.0,0012.86,0003.70,0001.93
2021-11-17 20:43:00,,0831.2,5.00,0.00,23.8,23.0,00.0,32.8,25.5,08.9,0000.0,0013.59,0003.72,0001.94
2021-11-17 20:44:00,,0831.2,4.99,0.00,23.8,23.1,00.0,32.8,25.6,09.0,0000.0,0014.60,0003.77,0001.94
2021-11-17 20:45:00,,0831.1,5.00,0.00,23.8,23.1,00.0,32.8,25.5,08.8,0000.0,0015.31,0003.82,0001.94
2021-11-17 20:46:00,,0831.1,5.00,0.00,23.8,23.1,00.0,32.8,25.5,08.9,0000.0,0015.44,0003.75,0001.93
2021-11-17 20:47:00,,0831.2,5.00,0.00,23.8,23.1,00.0,32.8,25.5,08.8,0000.0,0016.07,0003.70,0001.93
2021-11-17 20:48:00,,0831.2,4.99,0.00,23.8,23.1,00.0,32.8,25.5,08.8,0000.0,0015.94,0003.74,0001.93
2021-11-17 20:49:00,,0831.1,5.01,0.00,23.8,23.1,00.0,32.8,25.5,08.8,0000.0,0015.67,0003.72,0001.93
2021-11-17 20:50:00,,0831.2,4.99,0.00,23.7,23.1,00.0,32.8,25.5,08.8,0000.0,0014.77,0003.78,0001.93
2021-11-17 20:51:00,,0831.0,5.00,0.00,23.7,23.1,00.0,32.8,25.5,08.8,0000.0,0014.05,0003.76,0001.94
2021-11-17 20:52:00,,0831.0,4.99,0.00,23.7,23.0,00.0,32.8,25.5,08.8,0000.0,0014.04,0003.73,0001.92
2021-11-17 20:53:00,,0831.0,5.00,0.00,23.7,23.0,00.0,32.8,25.5,08.9,0000.0,0014.45,0003.72,0001.92
2021-11-17 20:54:00,,0831.1,4.99,0.00,23.7,23.0,00.0,32.7,25.5,08.9,0000.0,0014.50,0003.72,0001.92
2021-11-17 20:55:00,,0831.1,5.00,0.00,23.7,23.0,00.0,32.7,25.5,08.9,0000.0,0014.25,0003.70,0001.91
2021-11-17 20:56:00,,0831.0,4.99,0.00,23.7,23.0,00.0,32.7,25.5,08.8,0000.0,0014.21,0003.63,0001.90
2021-11-17 20:57:00,,0831.0,5.01,0.00,23.7,23.0,00.0,32.7,25.5,08.8,0000.0,0014.17,0003.65,0001.92
2021-11-17 20:58:00,,0830.9,4.99,0.00,23.7,23.0,00.0,32.7,25.5,08.8,0000.0,0013.70,0003.71,0001.94
2021-11-17 20:59:00,,0830.9,5.00,0.00,23.7,23.0,00.0,32.7,25.5,08.8,0000.0,0013.96,0003.72,0001.96
